FW9604 Weather Reports


time (UTC)temp
C
wind
direction
speed
KPH
gust
KPH
rain 1hr
cm
rain 24hr
cm
rain mn
cm
humidity
%
barometer
mb
20260510201528 9 324 9.7 19.3 0.00 0.00 0.00 65 1016.6
20260510200029 9 14 8.0 22.5 0.00 0.00 0.00 66 1016.5
20260510194539 10 14 9.7 22.5 0.00 0.00 0.00 69 1016.5
20260510193030 10 352 6.4 24.1 0.00 0.00 0.00 70 1016.4
20260510191528 10 334 8.0 27.4 0.00 0.00 0.00 69 1016.3
20260510190030 10 184 8.0 29.0 0.00 0.00 0.00 70 1016.3
20260510184535 10 15 9.7 29.0 0.00 0.00 0.00 72 1016.4
20260510183031 10 5 9.7 22.5 0.00 0.00 0.00 72 1016.2
20260510181530 10 285 9.7 29.0 0.00 0.00 0.00 72 1016.4
20260510180029 10 65 11.3 29.0 0.00 0.00 0.00 73 1016.3
20260510174530 10 355 9.7 30.6 0.00 0.00 0.00 73 1016.2
20260510173030 11 346 9.7 29.0 0.00 0.00 0.00 73 1016.4
20260510171531 11 334 9.7 24.1 0.00 0.00 0.00 73 1016.4
20260510170030 11 280 9.7 25.7 0.00 0.00 0.00 73 1016.5
20260510164530 11 11 8.0 24.1 0.00 0.00 0.00 73 1016.5
20260510163030 11 277 11.3 27.4 0.00 0.00 0.00 73 1016.6
20260510161535 11 329 9.7 22.5 0.00 0.00 0.00 72 1016.9
20260510160035 11 334 9.7 27.4 0.00 0.00 0.00 73 1017.2
20260510154530 11 315 9.7 24.1 0.00 0.00 0.00 73 1017.3
20260510153034 12 30 8.0 25.7 0.00 0.00 0.00 72 1017.4
20260510151530 12 5 8.0 22.5 0.00 0.00 0.00 72 1017.6
20260510150041 12 298 6.4 22.5 0.00 0.00 0.00 72 1017.7
20260510144535 12 315 6.4 20.9 0.00 0.00 0.00 72 1018.0
20260510143028 12 306 8.0 22.5 0.00 0.00 0.00 69 1018.0
20260510141533 12 325 4.8 24.1 0.00 0.00 0.00 69 1018.1
20260510140029 12 360 6.4 22.5 0.00 0.00 0.00 69 1018.0
20260510134529 12 207 6.4 20.9 0.00 0.00 0.00 70 1018.2
20260510133028 12 108 8.0 22.5 0.00 0.00 0.00 70 1018.2
20260510131530 12 305 4.8 19.3 0.00 0.00 0.00 71 1018.3
20260510130030 12 149 6.4 20.9 0.00 0.00 0.00 71 1018.5
20260510124531 12 94 6.4 22.5 0.00 0.00 0.00 70 1018.6
20260510123034 12 284 6.4 22.5 0.00 0.00 0.00 69 1018.5
20260510121528 12 84 4.8 19.3 0.00 0.00 0.00 72 1018.6
20260510120031 12 326 6.4 19.3 0.00 0.00 0.00 72 1018.7
20260510114536 11 341 4.8 19.3 0.00 0.00 0.00 72 1018.8
20260510113031 12 287 4.8 24.1 0.00 0.00 0.00 72 1019.1
20260510111528 11 302 6.4 20.9 0.00 0.00 0.00 72 1019.2
20260510110031 11 281 6.4 19.3 0.00 0.00 0.00 74 1019.3
20260510104534 11 250 6.4 24.1 0.00 0.00 0.00 75 1019.4
20260510103028 10 210 6.4 22.5 0.00 0.00 0.00 75 1019.5
20260510101528 10 296 6.4 20.9 0.00 0.00 0.00 76 1019.7
20260510100029 10 292 4.8 22.5 0.00 0.00 0.00 77 1019.6
20260510094538 10 269 6.4 22.5 0.00 0.00 0.00 78 1019.6
20260510093028 10 325 9.7 25.7 0.00 0.00 0.00 78 1019.7
20260510091530 10 103 6.4 20.9 0.00 0.00 0.00 79 1019.7
20260510090028 10 94 9.7 25.7 0.00 0.00 0.00 79 1019.6
20260510084527 10 298 11.3 24.1 0.00 0.00 0.00 80 1019.7
20260510083028 10 337 9.7 22.5 0.00 0.00 0.00 80 1019.7
20260510081538 10 263 9.7 24.1 0.00 0.00 0.00 80 1019.6
20260510080032 10 306 8.0 24.1 0.00 0.00 0.00 80 1019.5
20260510074529 10 309 6.4 20.9 0.00 0.00 0.00 80 1019.4
20260510073034 10 277 9.7 24.1 0.00 0.00 0.00 80 1019.6
20260510071531 10 312 9.7 25.7 0.00 0.00 0.00 80 1019.5
20260510070035 10 276 8.0 22.5 0.00 0.00 0.00 81 1019.4
20260510064530 10 340 8.0 19.3 0.00 0.00 0.00 82 1019.4
20260510063029 10 352 8.0 20.9 0.00 0.00 0.00 82 1019.1
20260510061533 10 16 11.3 20.9 0.00 0.00 0.00 82 1019.1
20260510060031 10 360 9.7 24.1 0.00 0.00 0.00 82 1018.9
20260510054535 10 355 6.4 20.9 0.00 0.00 0.00 83 1018.9
20260510053030 10 344 8.0 19.3 0.00 0.00 0.00 84 1018.9
20260510051534 10 266 6.4 14.5 0.00 0.00 0.00 84 1018.8
20260510050031 10 271 4.8 20.9 0.00 0.00 0.00 84 1018.9
20260510044536 10 291 3.2 14.5 0.00 0.00 0.00 84 1018.9
20260510043030 10 303 6.4 22.5 0.00 0.00 0.00 84 1019.0
20260510041529 10 275 8.0 19.3 0.00 0.00 0.00 84 1019.0
20260510040037 10 288 9.7 25.7 0.00 0.00 0.00 84 1019.2
20260510034529 10 319 9.7 24.1 0.00 0.00 0.00 84 1019.2
20260510033030 10 276 9.7 24.1 0.00 0.00 0.00 84 1019.3
20260510031546 10 329 9.7 24.1 0.00 0.00 0.00 84 1019.4
20260510030034 10 298 6.4 24.1 0.00 0.00 0.00 84 1019.3
20260510024530 10 298 8.0 20.9 0.00 0.00 0.00 84 1019.4
20260510023028 10 346 6.4 25.7 0.00 0.00 0.00 85 1019.3
20260510021532 10 306 6.4 24.1 0.00 0.00 0.00 86 1019.3
20260510020028 10 234 6.4 19.3 0.00 0.00 0.00 86 1019.4
20260510014528 11 23 6.4 19.3 0.00 0.00 0.00 86 1019.3
20260510013030 11 338 6.4 19.3 0.00 0.00 0.00 87 1019.4
20260510011530 11 319 4.8 17.7 0.00 0.00 0.00 87 1019.4
20260510010030 11 306 3.2 17.7 0.00 0.00 0.00 87 1019.6
20260510004528 11 33 8.0 19.3 0.00 0.00 0.00 87 1019.6
20260510003031 11 284 4.8 20.9 0.00 0.00 0.00 87 1019.4
20260510001530 11 49 9.7 22.5 0.00 0.00 0.00 88 1019.4
20260510000030 11 284 11.3 22.5 0.00 0.00 0.00 88 1019.4
20260509234533 11 302 9.7 25.7 0.00 0.00 0.00 88 1019.3
20260509233030 10 226 9.7 32.2 0.00 0.00 0.00 88 1019.3
20260509231528 10 318 9.7 22.5 0.00 0.00 0.00 88 1019.4
20260509230030 10 319 9.7 19.3 0.00 0.00 0.00 88 1019.5
20260509224529 10 322 6.4 24.1 0.00 0.00 0.00 88 1019.5
20260509223028 10 9 8.0 24.1 0.00 0.00 0.00 88 1019.5
20260509221533 10 16 9.7 24.1 0.00 0.00 0.00 88 1019.4
20260509220027 10 347 8.0 22.5 0.00 0.00 0.00 87 1019.6
20260509214527 10 327 6.4 24.1 0.00 0.00 0.00 87 1019.6
20260509213029 10 10 8.0 22.5 0.00 0.00 0.00 86 1019.7
20260509211530 10 41 8.0 25.7 0.00 0.00 0.00 86 1019.5
20260509210038 10 11 9.7 25.7 0.00 0.00 0.00 86 1019.5
20260509204530 10 16 8.0 22.5 0.00 0.00 0.00 86 1019.5
20260509203034 10 265 9.7 25.7 0.00 0.00 0.00 86 1019.4